User: anonymous   Login
Location: Unspecified
(0.0000°N, 0.0000°E)
Time: 00:14:32
(UTC+02:00)
Language:

Cosmos 1300 - Orbit

View from above orbital plane
View from above orbital plane
View from above satellite
View from above satellite

Ground track
Ground track

The orbit data is extracted from the following two-line orbital elements,

1 12785U 81082A   17289.67690240  .00000577  00000-0  27713-4 0  9996
2 12785  82.5019 313.1748 0002073 127.7227  11.4375 15.16884880970261
Epoch (UTC): 16 October 2017 16:14:44
Eccentricity: 0.0002073
inclination: 82.5019°
perigee height: 514 km
apogee height: 516 km
right ascension of ascending node: 313.1748°
argument of perigee: 127.7227°
revolutions per day: 15.16884880
mean anomaly at epoch: 11.4375°
orbit number at epoch: 97026

The dashed part of the orbit path shows where the satellite is in the earth's shadow,  

DLR